Regional Weather Roundup
Issued by NWS

Home | Current Version | Previous Version | Text Only | Print | Product List | Glossary On
Versions: 1 2 3 4 5 6 7 8 9 10 11 12 13 14 15 16 17 18 19 20 21 22 23 24 25 26 27 28 29 30 31 32 33 34 35 36 37 38 39 40 41 42 43 44 45 46 47 48 49 50
148
ASUS42 KKEY 180610
RWRKEY

FLORIDA REGIONAL WEATHER ROUNDUP FOR THE FLORIDA KEYS
NATIONAL WEATHER SERVICE KEY WEST FLORIDA
100 AM EST SAT NOV 18 2017

...SOUTH FLORIDA AND THE KEYS...

CITY           SKY/WX    TMP DP  RH WIND       PRES   REMARKS
FORT MYERS     CLEAR     66  61  84 NE3       30.03F
SW REGIONAL AP CLEAR     64  62  93 E6        30.04F
NAPLES         CLEAR     66  62  87 E7        30.03F
MIAMI          PTCLDY    71  59  65 N5        30.02F
WEST KENDALL   MOCLDY    66  58  75 N5        30.02S
HOMESTEAD      NOT AVBL
MARATHON       CLEAR     74  62  66 NE14      30.00F
KEY WEST INTL  NOT AVBL

...INTERNATIONAL WEATHER...

CITY           SKY/WX    TMP DP  RH WIND       PRES   REMARKS
NASSAU BAHAMAS NOT AVBL
CANCUN MEXICO  PTCLDY    64  64 100 W2        29.99F
COZUMEL MEXICO CLEAR     70  68  94 CALM      29.96F

ADJACENT COASTAL WATERS...

STATION/POSITION TIME  SKY/WX   TEMP    WIND        PRES    WAVE
                                AIR SEA DIR/SP/G            HT/PER
                 (UTC)          (F)     (DEG/KT/KT) (MB)    (FT/S)
PULASKI SHOAL LI 0600            75     110/  8/  8 1016.3F
SAND KEY         0550            74                 1016.4F
LONG KEY         NOT AVBL
MOLASSES REEF    0600            76 80   70/ 11/ 12 1016.2S
FOWEY ROCKS      0600            75 78   40/  8/  9 1016.7R
Buoy 42097       0530               78                N/A     2/ 4

$$




USA.gov is the U.S. government's official web portal to all federal, state and local government web resources and services.